Time,TemperatureF,DewpointF,PressureIn,WindDirection,WindDirectionDegrees,WindSpeedMPH,WindSpeedGustMPH,Humidity,HourlyPrecipIn,Conditions,Clouds,dailyrainin,SolarRadiationWatts/m^2,SoftwareType,DateUTC
2013-05-30 00:21:00,42.0,33.0,-100.00,West,266,10.0,17.0,71,0.00,,,0.06,1.000000,,2013-05-30 07:21:00,
2013-05-30 00:31:00,42.0,33.0,-100.00,West,266,10.0,17.0,71,0.00,,,0.06,1.000000,,2013-05-30 07:31:00,
2013-05-30 00:42:00,42.0,33.0,-100.00,West,266,10.0,17.0,71,0.00,,,0.06,1.000000,,2013-05-30 07:42:00,
2013-05-30 00:52:00,42.0,33.0,-100.00,West,266,10.0,17.0,71,0.00,,,0.06,1.000000,,2013-05-30 07:52:00,
2013-05-30 01:21:00,40.0,32.0,-100.00,WNW,284,5.0,13.0,73,0.00,,,0.05,1.000000,,2013-05-30 08:21:00,
2013-05-30 01:32:00,40.0,32.0,-100.00,WNW,284,5.0,13.0,73,0.00,,,0.05,1.000000,,2013-05-30 08:32:00,
2013-05-30 01:42:00,40.0,32.0,-100.00,WNW,284,5.0,13.0,73,0.00,,,0.05,1.000000,,2013-05-30 08:42:00,
2013-05-30 01:52:00,40.0,32.0,-100.00,WNW,284,5.0,13.0,73,0.00,,,0.05,1.000000,,2013-05-30 08:52:00,
2013-05-30 02:21:00,38.0,32.0,-100.00,West,267,4.0,7.0,79,0.00,,,0.01,1.000000,,2013-05-30 09:21:00,
2013-05-30 02:32:00,38.0,32.0,-100.00,West,267,4.0,7.0,79,0.00,,,0.01,1.000000,,2013-05-30 09:32:00,
2013-05-30 02:42:00,38.0,32.0,-100.00,West,267,4.0,7.0,79,0.00,,,0.01,1.000000,,2013-05-30 09:42:00,
2013-05-30 02:53:00,38.0,32.0,-100.00,West,267,4.0,7.0,79,0.00,,,0.01,1.000000,,2013-05-30 09:53:00,
2013-05-30 03:22:00,37.0,31.0,-100.00,NNW,345,3.0,8.0,80,0.00,,,0.01,1.000000,,2013-05-30 10:22:00,
2013-05-30 03:32:00,37.0,31.0,-100.00,NNW,345,3.0,8.0,80,0.00,,,0.01,1.000000,,2013-05-30 10:32:00,
2013-05-30 03:42:00,37.0,31.0,-100.00,NNW,345,3.0,8.0,80,0.00,,,0.01,1.000000,,2013-05-30 10:42:00,
2013-05-30 03:52:00,37.0,31.0,-100.00,NNW,345,3.0,8.0,80,0.00,,,0.01,1.000000,,2013-05-30 10:52:00,
2013-05-30 04:21:00,35.0,30.0,-100.00,NW,310,5.0,7.0,82,0.00,,,0.01,1.000000,,2013-05-30 11:21:00,
2013-05-30 04:32:00,35.0,30.0,-100.00,NW,310,5.0,7.0,82,0.00,,,0.01,1.000000,,2013-05-30 11:32:00,
2013-05-30 04:42:00,35.0,30.0,-100.00,NW,310,5.0,7.0,82,0.00,,,0.01,1.000000,,2013-05-30 11:42:00,
2013-05-30 04:52:00,35.0,30.0,-100.00,NW,310,5.0,7.0,82,0.00,,,0.01,1.000000,,2013-05-30 11:52:00,
2013-05-30 06:22:00,32.0,29.0,-100.00,East,89,4.0,5.0,90,-99.99,,,0.01,5.000000,,2013-05-30 13:22:00,
2013-05-30 06:32:00,32.0,29.0,-100.00,East,89,4.0,5.0,90,-99.99,,,0.01,5.000000,,2013-05-30 13:32:00,
2013-05-30 06:42:00,32.0,29.0,-100.00,East,89,4.0,5.0,90,-99.99,,,0.01,5.000000,,2013-05-30 13:42:00,
2013-05-30 06:52:00,32.0,29.0,-100.00,East,89,4.0,5.0,90,-99.99,,,0.01,5.000000,,2013-05-30 13:52:00,
2013-05-30 07:22:00,37.0,32.0,-100.00,ENE,57,4.0,6.0,81,0.00,,,0.01,113.000000,,2013-05-30 14:22:00,
2013-05-30 07:32:00,37.0,32.0,-100.00,ENE,57,4.0,6.0,81,0.00,,,0.01,113.000000,,2013-05-30 14:32:00,
2013-05-30 07:42:00,37.0,32.0,-100.00,ENE,57,4.0,6.0,81,0.00,,,0.01,113.000000,,2013-05-30 14:42:00,
2013-05-30 07:51:00,37.0,32.0,-100.00,ENE,57,4.0,6.0,81,0.00,,,0.01,113.000000,,2013-05-30 14:51:00,
2013-05-30 09:12:00,46.0,32.0,-100.00,NW,307,3.0,10.0,57,-99.99,,,0.01,496.000000,,2013-05-30 16:12:00,
2013-05-30 09:22:00,46.0,32.0,-100.00,NW,307,3.0,10.0,57,-99.99,,,0.01,496.000000,,2013-05-30 16:22:00,
2013-05-30 09:33:00,46.0,32.0,-100.00,NW,307,3.0,10.0,57,-99.99,,,0.01,496.000000,,2013-05-30 16:33:00,
2013-05-30 09:42:00,46.0,32.0,-100.00,NW,307,3.0,10.0,57,-99.99,,,0.01,496.000000,,2013-05-30 16:42:00,
2013-05-30 09:52:00,46.0,32.0,-100.00,NW,307,3.0,10.0,57,-99.99,,,0.01,496.000000,,2013-05-30 16:52:00,
2013-05-30 10:22:00,51.0,33.0,-100.00,West,276,3.0,7.0,50,0.00,,,0.01,680.000000,,2013-05-30 17:22:00,
2013-05-30 10:32:00,51.0,33.0,-100.00,West,276,3.0,7.0,50,0.00,,,0.01,680.000000,,2013-05-30 17:32:00,
2013-05-30 10:42:00,51.0,33.0,-100.00,West,276,3.0,7.0,50,0.00,,,0.01,680.000000,,2013-05-30 17:42:00,
2013-05-30 10:52:00,51.0,33.0,-100.00,West,276,3.0,7.0,50,0.00,,,0.01,680.000000,,2013-05-30 17:52:00,
2013-05-30 11:11:00,53.0,29.0,-100.00,WSW,237,5.0,12.0,39,0.00,,,0.01,843.000000,,2013-05-30 18:11:00,
2013-05-30 11:21:00,53.0,29.0,-100.00,WSW,237,5.0,12.0,39,0.00,,,0.01,843.000000,,2013-05-30 18:21:00,
2013-05-30 11:32:00,53.0,29.0,-100.00,WSW,237,5.0,12.0,39,0.00,,,0.01,843.000000,,2013-05-30 18:32:00,
2013-05-30 11:42:00,53.0,29.0,-100.00,WSW,237,5.0,12.0,39,0.00,,,0.01,843.000000,,2013-05-30 18:42:00,
2013-05-30 11:51:00,53.0,29.0,-100.00,WSW,237,5.0,12.0,39,0.00,,,0.01,843.000000,,2013-05-30 18:51:00,
2013-05-30 12:11:00,56.0,28.0,-100.00,West,263,6.0,12.0,34,0.00,,,0.01,964.000000,,2013-05-30 19:11:00,
2013-05-30 12:22:00,56.0,28.0,-100.00,West,263,6.0,12.0,34,0.00,,,0.01,964.000000,,2013-05-30 19:22:00,
2013-05-30 12:32:00,56.0,28.0,-100.00,West,263,6.0,12.0,34,0.00,,,0.01,964.000000,,2013-05-30 19:32:00,
2013-05-30 12:42:00,56.0,28.0,-100.00,West,263,6.0,12.0,34,0.00,,,0.01,964.000000,,2013-05-30 19:42:00,
2013-05-30 12:52:00,56.0,28.0,-100.00,West,263,6.0,12.0,34,0.00,,,0.01,964.000000,,2013-05-30 19:52:00,
2013-05-30 13:22:00,58.0,33.0,-100.00,WSW,251,7.0,14.0,38,0.00,,,0.01,1029.000000,,2013-05-30 20:22:00,
2013-05-30 13:33:00,58.0,33.0,-100.00,WSW,251,7.0,14.0,38,0.00,,,0.01,1029.000000,,2013-05-30 20:33:00,
2013-05-30 13:42:00,58.0,33.0,-100.00,WSW,251,7.0,14.0,38,0.00,,,0.01,1029.000000,,2013-05-30 20:42:00,
2013-05-30 13:52:00,58.0,33.0,-100.00,WSW,251,7.0,14.0,38,0.00,,,0.01,1029.000000,,2013-05-30 20:52:00,
2013-05-30 14:11:00,60.0,33.0,-100.00,SW,236,8.0,12.0,36,0.00,,,0.01,1041.000000,,2013-05-30 21:11:00,
2013-05-30 14:22:00,60.0,33.0,-100.00,SW,236,8.0,12.0,36,0.00,,,0.01,1041.000000,,2013-05-30 21:22:00,
2013-05-30 14:33:00,60.0,33.0,-100.00,SW,236,8.0,12.0,36,0.00,,,0.01,1041.000000,,2013-05-30 21:33:00,
2013-05-30 14:42:00,60.0,33.0,-100.00,SW,236,8.0,12.0,36,0.00,,,0.01,1041.000000,,2013-05-30 21:42:00,
2013-05-30 14:53:00,60.0,33.0,-100.00,SW,236,8.0,12.0,36,0.00,,,0.01,1041.000000,,2013-05-30 21:53:00,
2013-05-30 15:12:00,63.0,36.0,-100.00,West,261,8.0,15.0,36,0.00,,,0.01,1009.000000,,2013-05-30 22:12:00,
2013-05-30 15:22:00,63.0,36.0,-100.00,West,261,8.0,15.0,36,0.00,,,0.01,1009.000000,,2013-05-30 22:22:00,
2013-05-30 15:33:00,63.0,36.0,-100.00,West,261,8.0,15.0,36,0.00,,,0.01,1009.000000,,2013-05-30 22:33:00,
2013-05-30 15:42:00,63.0,36.0,-100.00,West,261,8.0,15.0,36,0.00,,,0.01,1009.000000,,2013-05-30 22:42:00,
2013-05-30 15:52:00,63.0,36.0,-100.00,West,261,8.0,15.0,36,0.00,,,0.01,1009.000000,,2013-05-30 22:52:00,
2013-05-30 16:22:00,63.0,33.0,-100.00,WNW,297,10.0,20.0,32,0.00,,,0.01,919.000000,,2013-05-30 23:22:00,
2013-05-30 16:31:00,63.0,33.0,-100.00,WNW,297,10.0,20.0,32,0.00,,,0.01,919.000000,,2013-05-30 23:31:00,
2013-05-30 16:41:00,63.0,33.0,-100.00,WNW,297,10.0,20.0,32,0.00,,,0.01,919.000000,,2013-05-30 23:41:00,
2013-05-30 16:52:00,63.0,33.0,-100.00,WNW,297,10.0,20.0,32,0.00,,,0.01,919.000000,,2013-05-30 23:52:00,
2013-05-30 17:21:00,61.0,29.0,-100.00,WNW,290,10.0,20.0,30,0.00,,,-99.99,774.000000,,2013-05-31 00:21:00,
2013-05-30 17:32:00,61.0,29.0,-100.00,WNW,290,10.0,20.0,30,0.00,,,-99.99,774.000000,,2013-05-31 00:32:00,
2013-05-30 17:42:00,61.0,29.0,-100.00,WNW,290,10.0,20.0,30,0.00,,,-99.99,774.000000,,2013-05-31 00:42:00,
2013-05-30 17:51:00,61.0,29.0,-100.00,WNW,290,10.0,20.0,30,0.00,,,-99.99,774.000000,,2013-05-31 00:51:00,
2013-05-30 18:21:00,60.0,30.0,-100.00,West,270,13.0,20.0,32,0.00,,,0.01,600.000000,,2013-05-31 01:21:00,
2013-05-30 18:32:00,60.0,30.0,-100.00,West,270,13.0,20.0,32,0.00,,,0.01,600.000000,,2013-05-31 01:32:00,
2013-05-30 18:42:00,60.0,30.0,-100.00,West,270,13.0,20.0,32,0.00,,,0.01,600.000000,,2013-05-31 01:42:00,
2013-05-30 18:51:00,60.0,30.0,-100.00,West,270,13.0,20.0,32,0.00,,,0.01,600.000000,,2013-05-31 01:51:00,
2013-05-30 19:11:00,58.0,31.0,-100.00,West,280,12.0,24.0,36,0.00,,,0.01,398.000000,,2013-05-31 02:11:00,
2013-05-30 19:21:00,58.0,31.0,-100.00,West,280,12.0,24.0,36,0.00,,,0.01,398.000000,,2013-05-31 02:21:00,
2013-05-30 19:32:00,58.0,31.0,-100.00,West,280,12.0,24.0,36,0.00,,,0.01,398.000000,,2013-05-31 02:32:00,
2013-05-30 19:41:00,58.0,31.0,-100.00,West,280,12.0,24.0,36,0.00,,,0.01,398.000000,,2013-05-31 02:41:00,
2013-05-30 19:51:00,58.0,31.0,-100.00,West,280,12.0,24.0,36,0.00,,,0.01,398.000000,,2013-05-31 02:51:00,
2013-05-30 20:21:00,54.0,33.0,-100.00,WNW,302,9.0,19.0,45,0.00,,,0.01,200.000000,,2013-05-31 03:21:00,
2013-05-30 20:33:00,54.0,33.0,-100.00,WNW,302,9.0,19.0,45,0.00,,,0.01,200.000000,,2013-05-31 03:33:00,
2013-05-30 20:43:00,54.0,33.0,-100.00,WNW,302,9.0,19.0,45,0.00,,,0.01,200.000000,,2013-05-31 03:43:00,
2013-05-30 20:53:00,54.0,33.0,-100.00,WNW,302,9.0,19.0,45,0.00,,,0.01,200.000000,,2013-05-31 03:53:00,
2013-05-30 21:12:00,48.0,34.0,-100.00,NW,313,9.0,12.0,57,0.00,,,-99.99,32.000000,,2013-05-31 04:12:00,
2013-05-30 21:22:00,48.0,34.0,-100.00,NW,313,9.0,12.0,57,0.00,,,-99.99,32.000000,,2013-05-31 04:22:00,
2013-05-30 21:32:00,48.0,34.0,-100.00,NW,313,9.0,12.0,57,0.00,,,-99.99,32.000000,,2013-05-31 04:32:00,
2013-05-30 21:42:00,48.0,34.0,-100.00,NW,313,9.0,12.0,57,0.00,,,-99.99,32.000000,,2013-05-31 04:42:00,
2013-05-30 21:52:00,48.0,34.0,-100.00,NW,313,9.0,12.0,57,0.00,,,-99.99,32.000000,,2013-05-31 04:52:00,
2013-05-30 22:22:00,45.0,34.0,-100.00,NW,319,6.0,12.0,65,0.00,,,0.00,1.000000,,2013-05-31 05:22:00,
2013-05-30 22:31:00,45.0,34.0,-100.00,NW,319,6.0,12.0,65,0.00,,,0.00,1.000000,,2013-05-31 05:31:00,
2013-05-30 22:42:00,45.0,34.0,-100.00,NW,319,6.0,12.0,65,0.00,,,0.00,1.000000,,2013-05-31 05:42:00,
2013-05-30 22:51:00,45.0,34.0,-100.00,NW,319,6.0,12.0,65,0.00,,,0.00,1.000000,,2013-05-31 05:51:00,
2013-05-30 23:12:00,44.0,34.0,-100.00,NNE,20,4.0,7.0,68,0.00,,,0.00,1.000000,,2013-05-31 06:12:00,
2013-05-30 23:21:00,44.0,34.0,-100.00,NNE,20,4.0,7.0,68,0.00,,,0.00,1.000000,,2013-05-31 06:21:00,
2013-05-30 23:31:00,44.0,34.0,-100.00,NNE,20,4.0,7.0,68,0.00,,,0.00,1.000000,,2013-05-31 06:31:00,
2013-05-30 23:41:00,44.0,34.0,-100.00,NNE,20,4.0,7.0,68,0.00,,,0.00,1.000000,,2013-05-31 06:41:00,
2013-05-30 23:51:00,44.0,34.0,-100.00,NNE,20,4.0,7.0,68,0.00,,,0.00,1.000000,,2013-05-31 06:51:00,